Hourly Data Report for November 02, 2017

All times are specified in Local Standard Time (LST). Add 1 hour to adjust for Daylight Saving Time where and when it is observed.

GREENWOOD A
NOVA SCOTIA

44°59'00.000" N
64°55'00.000" W
28.00 m
8202000
71397
YZX

Download Data

Hourly Data (November 2017)
Hourly Data Report for November 2, 2017
Temp Definition
°C
Dew Point Temp Definition
°C
Rel Hum Definition
%
Wind Dir Definition
10's deg

Wind Spd Definition
km/h
Visibility Definition
km
Stn Press Definition
kPa
Hmdx Definition


Wind Chill Definition


Weather Definition


TIME
00:00 3.5 2.2 91 15 6 24.1 102.98     Mostly Cloudy
01:00 3.5 2.4 92   0 24.1 102.93     Mostly Cloudy
02:00 3.5 2.2 91 34 4 24.1 102.92     Mainly Clear
03:00 3.4 2.1 91 12 6 24.1 102.92     Mainly Clear
04:00 3.6 2.3 91 3 7 24.1 102.92     Mainly Clear
05:00 4.0 2.7 91 6 9 24.1 102.89     Mostly Cloudy
06:00 5.0 2.8 86 12 6 24.1 102.96     Mostly Cloudy
07:00 5.1 3.4 89 10 9 24.1 102.98     Mostly Cloudy
08:00 5.7 3.6 86 6 11 24.1 102.96     Mostly Cloudy
09:00 7.3 3.7 78 5 7 24.1 102.93     Mostly Cloudy
10:00 10.2 5.3 72 7 9 24.1 102.84     Mostly Cloudy
11:00 14.8 7.3 61 14 19 24.1 102.79     Mostly Cloudy
12:00 15.1 7.8 62 17 20 24.1 102.70     Mostly Cloudy
13:00 16.2 8.5 60 14 20 24.1 102.65     Mostly Cloudy
14:00 16.0 9.7 66 15 30 24.1 102.51     Mostly Cloudy
15:00 15.8 9.7 67 18 22 24.1 102.53     Mostly Cloudy
16:00 15.3 9.9 70 18 17 24.1 102.50     Mostly Cloudy
17:00 15.0 8.6 66 15 13 24.1 102.43     Mostly Cloudy
18:00 14.5 9.2 70 17 4 24.1 102.41     Mostly Cloudy
19:00 14.3 10.7 79 19 6 24.1 102.39     Mostly Cloudy
20:00 14.3 11.9 85 21 4 24.1 102.36     Cloudy
21:00 14.7 12.5 87 16 6 24.1 102.34     Cloudy
22:00 14.5 13.2 92 17 11 24.1 102.25     Mostly Cloudy
23:00 15.0 13.4 90 22 7 24.1 102.20     Cloudy

Notes on Data Quality.

Legend

  • E = Estimated
  • M = Missing
  • NA = Not Available
  • ‡ = Partner data that is not subject to review by the National Climate Archives
Date modified: